Time,TemperatureF,DewpointF,PressureIn,WindDirection,WindDirectionDegrees,WindSpeedMPH,WindSpeedGustMPH,Humidity,HourlyPrecipIn,Conditions,Clouds,dailyrainin,SoftwareType,DateUTC
2013-02-08 00:01:00,33.0,33.0,-100.00,WSW,253,20.0,29.0,100,-99.99,,,-99.99,,2013-02-08 08:01:00,
2013-02-08 00:11:00,32.0,32.0,-100.00,WSW,253,16.0,25.0,100,-99.99,,,-99.99,,2013-02-08 08:11:00,
2013-02-08 00:21:00,32.0,32.0,-100.00,WSW,242,15.0,23.0,100,-99.99,,,-99.99,,2013-02-08 08:21:00,
2013-02-08 00:32:00,32.0,32.0,-100.00,SW,234,13.0,21.0,100,-99.99,,,-99.99,,2013-02-08 08:32:00,
2013-02-08 00:41:00,33.0,33.0,-100.00,SW,235,13.0,23.0,100,-99.99,,,-99.99,,2013-02-08 08:41:00,
2013-02-08 00:52:00,33.0,33.0,-100.00,SW,227,15.0,25.0,100,-99.99,,,-99.99,,2013-02-08 08:52:00,
2013-02-08 01:02:00,33.0,33.0,-100.00,SW,227,15.0,25.0,100,-99.99,,,-99.99,,2013-02-08 09:02:00,
2013-02-08 01:11:00,33.0,33.0,-100.00,WSW,243,15.0,27.0,100,-99.99,,,-99.99,,2013-02-08 09:11:00,
2013-02-08 01:21:00,33.0,33.0,-100.00,WSW,243,15.0,27.0,100,-99.99,,,-99.99,,2013-02-08 09:21:00,
2013-02-08 01:31:00,33.0,33.0,-100.00,WSW,241,17.0,27.0,100,-99.99,,,-99.99,,2013-02-08 09:31:00,
2013-02-08 01:42:00,32.0,32.0,-100.00,WSW,240,17.0,26.0,100,-99.99,,,-99.99,,2013-02-08 09:42:00,
2013-02-08 01:51:00,32.0,32.0,-100.00,SW,234,17.0,30.0,100,-99.99,,,-99.99,,2013-02-08 09:51:00,
2013-02-08 02:01:00,32.0,32.0,-100.00,SW,235,17.0,30.0,100,-99.99,,,-99.99,,2013-02-08 10:01:00,
2013-02-08 02:11:00,32.0,32.0,-100.00,WSW,237,17.0,29.0,100,-99.99,,,-99.99,,2013-02-08 10:11:00,
2013-02-08 02:22:00,32.0,32.0,-100.00,WSW,244,20.0,32.0,100,-99.99,,,-99.99,,2013-02-08 10:22:00,
2013-02-08 02:31:00,32.0,32.0,-100.00,WSW,238,17.0,27.0,100,-99.99,,,-99.99,,2013-02-08 10:31:00,
2013-02-08 02:41:00,32.0,32.0,-100.00,SW,236,17.0,31.0,100,-99.99,,,-99.99,,2013-02-08 10:41:00,
2013-02-08 02:51:00,32.0,32.0,-100.00,WSW,247,18.0,27.0,100,-99.99,,,-99.99,,2013-02-08 10:51:00,
2013-02-08 03:01:00,32.0,32.0,-100.00,WSW,243,18.0,28.0,100,-99.99,,,-99.99,,2013-02-08 11:01:00,
2013-02-08 03:11:00,32.0,32.0,-100.00,SW,236,19.0,30.0,100,-99.99,,,-99.99,,2013-02-08 11:11:00,
2013-02-08 03:21:00,32.0,32.0,-100.00,WSW,248,22.0,32.0,100,-99.99,,,-99.99,,2013-02-08 11:21:00,
2013-02-08 03:32:00,32.0,32.0,-100.00,WSW,245,21.0,32.0,100,-99.99,,,-99.99,,2013-02-08 11:32:00,
2013-02-08 03:41:00,32.0,32.0,-100.00,WSW,241,19.0,31.0,100,-99.99,,,-99.99,,2013-02-08 11:41:00,
2013-02-08 03:52:00,32.0,32.0,-100.00,WSW,252,23.0,35.0,100,-99.99,,,-99.99,,2013-02-08 11:52:00,
2013-02-08 04:01:00,32.0,32.0,-100.00,WSW,250,22.0,35.0,100,-99.99,,,-99.99,,2013-02-08 12:01:00,
2013-02-08 04:11:00,32.0,32.0,-100.00,WSW,249,21.0,32.0,100,-99.99,,,-99.99,,2013-02-08 12:11:00,
2013-02-08 04:22:00,32.0,32.0,-100.00,SW,236,19.0,31.0,100,-99.99,,,-99.99,,2013-02-08 12:22:00,
2013-02-08 04:32:00,32.0,32.0,-100.00,WSW,240,18.0,36.0,100,-99.99,,,-99.99,,2013-02-08 12:32:00,
2013-02-08 04:42:00,32.0,32.0,-100.00,WSW,249,20.0,34.0,100,-99.99,,,-99.99,,2013-02-08 12:42:00,
2013-02-08 04:52:00,31.0,31.0,-100.00,WSW,243,22.0,35.0,100,-99.99,,,-99.99,,2013-02-08 12:52:00,
2013-02-08 05:01:00,31.0,31.0,-100.00,WSW,248,24.0,34.0,100,-99.99,,,-99.99,,2013-02-08 13:01:00,
2013-02-08 05:11:00,31.0,31.0,-100.00,WSW,254,23.0,34.0,100,-99.99,,,-99.99,,2013-02-08 13:11:00,
2013-02-08 05:21:00,31.0,31.0,-100.00,WSW,243,21.0,39.0,100,-99.99,,,-99.99,,2013-02-08 13:21:00,
2013-02-08 05:32:00,30.0,30.0,-100.00,WSW,241,19.0,33.0,100,-99.99,,,-99.99,,2013-02-08 13:32:00,
2013-02-08 05:42:00,30.0,30.0,-100.00,WSW,241,19.0,33.0,100,-99.99,,,-99.99,,2013-02-08 13:42:00,
2013-02-08 05:51:00,30.0,30.0,-100.00,WSW,239,18.0,31.0,100,-99.99,,,-99.99,,2013-02-08 13:51:00,
2013-02-08 06:01:00,30.0,30.0,-100.00,WSW,241,18.0,29.0,100,-99.99,,,-99.99,,2013-02-08 14:01:00,
2013-02-08 06:11:00,30.0,30.0,-100.00,West,263,18.0,27.0,100,-99.99,,,-99.99,,2013-02-08 14:11:00,
2013-02-08 06:21:00,29.0,29.0,-100.00,WSW,254,19.0,30.0,100,-99.99,,,-99.99,,2013-02-08 14:21:00,
2013-02-08 06:32:00,29.0,29.0,-100.00,WSW,250,19.0,28.0,100,-99.99,,,-99.99,,2013-02-08 14:32:00,
2013-02-08 06:41:00,29.0,29.0,-100.00,SW,229,19.0,31.0,100,-99.99,,,-99.99,,2013-02-08 14:41:00,
2013-02-08 06:52:00,29.0,29.0,-100.00,WSW,257,20.0,31.0,100,-99.99,,,-99.99,,2013-02-08 14:52:00,
2013-02-08 07:01:00,29.0,29.0,-100.00,WSW,242,18.0,28.0,100,-99.99,,,-99.99,,2013-02-08 15:01:00,
2013-02-08 07:11:00,29.0,29.0,-100.00,SW,225,15.0,27.0,100,-99.99,,,-99.99,,2013-02-08 15:11:00,
2013-02-08 07:21:00,29.0,29.0,-100.00,WSW,249,18.0,27.0,100,-99.99,,,-99.99,,2013-02-08 15:21:00,
2013-02-08 07:31:00,29.0,29.0,-100.00,WSW,245,17.0,24.0,100,-99.99,,,-99.99,,2013-02-08 15:31:00,
2013-02-08 07:41:00,29.0,29.0,-100.00,WSW,252,17.0,26.0,100,-99.99,,,-99.99,,2013-02-08 15:41:00,
2013-02-08 07:51:00,29.0,29.0,-100.00,WSW,255,18.0,27.0,100,-99.99,,,-99.99,,2013-02-08 15:51:00,
2013-02-08 08:01:00,29.0,29.0,-100.00,WSW,256,19.0,35.0,100,-99.99,,,-99.99,,2013-02-08 16:01:00,
2013-02-08 08:11:00,29.0,29.0,-100.00,WSW,252,19.0,29.0,100,-99.99,,,-99.99,,2013-02-08 16:11:00,
2013-02-08 08:21:00,29.0,29.0,-100.00,WSW,248,18.0,29.0,100,-99.99,,,-99.99,,2013-02-08 16:21:00,
2013-02-08 08:32:00,29.0,29.0,-100.00,WSW,249,18.0,26.0,100,-99.99,,,-99.99,,2013-02-08 16:32:00,
2013-02-08 08:41:00,29.0,29.0,-100.00,WSW,255,17.0,29.0,100,-99.99,,,-99.99,,2013-02-08 16:41:00,
2013-02-08 08:51:00,29.0,29.0,-100.00,WSW,238,17.0,29.0,100,-99.99,,,-99.99,,2013-02-08 16:51:00,
2013-02-08 09:02:00,29.0,29.0,-100.00,WSW,238,19.0,31.0,100,-99.99,,,-99.99,,2013-02-08 17:02:00,
2013-02-08 09:11:00,29.0,29.0,-100.00,WSW,248,20.0,30.0,100,-99.99,,,-99.99,,2013-02-08 17:11:00,
2013-02-08 09:21:00,29.0,29.0,-100.00,WSW,241,18.0,28.0,100,-99.99,,,-99.99,,2013-02-08 17:21:00,
2013-02-08 09:32:00,30.0,30.0,-100.00,SW,231,17.0,30.0,100,-99.99,,,-99.99,,2013-02-08 17:32:00,
2013-02-08 09:42:00,30.0,30.0,-100.00,SW,228,20.0,29.0,100,-99.99,,,-99.99,,2013-02-08 17:42:00,
2013-02-08 09:52:00,30.0,30.0,-100.00,SW,234,18.0,27.0,100,-99.99,,,-99.99,,2013-02-08 17:52:00,
2013-02-08 10:01:00,30.0,30.0,-100.00,SW,229,18.0,25.0,100,-99.99,,,-99.99,,2013-02-08 18:01:00,
2013-02-08 10:11:00,30.0,30.0,-100.00,SW,229,18.0,25.0,100,-99.99,,,-99.99,,2013-02-08 18:11:00,
2013-02-08 10:23:00,30.0,30.0,-100.00,WSW,245,16.0,26.0,100,-99.99,,,-99.99,,2013-02-08 18:23:00,
2013-02-08 10:33:00,30.0,30.0,-100.00,WSW,251,23.0,33.0,100,-99.99,,,-99.99,,2013-02-08 18:33:00,
2013-02-08 10:43:00,30.0,30.0,-100.00,WSW,251,23.0,33.0,100,-99.99,,,-99.99,,2013-02-08 18:43:00,
2013-02-08 10:52:00,30.0,30.0,-100.00,WSW,247,19.0,30.0,100,-99.99,,,-99.99,,2013-02-08 18:52:00,
2013-02-08 11:00:00,30.0,30.0,-100.00,WSW,244,19.0,29.0,100,-99.99,,,-99.99,,2013-02-08 19:00:00,
2013-02-08 11:01:00,30.0,30.0,-100.00,WSW,243,20.0,35.0,100,-99.99,,,-99.99,,2013-02-08 19:01:00,
2013-02-08 11:11:00,30.0,30.0,-100.00,WSW,243,20.0,35.0,100,-99.99,,,-99.99,,2013-02-08 19:11:00,
2013-02-08 11:22:00,30.0,30.0,-100.00,SW,236,18.0,30.0,100,-99.99,,,-99.99,,2013-02-08 19:22:00,
2013-02-08 11:32:00,30.0,30.0,-100.00,SW,232,19.0,33.0,100,-99.99,,,-99.99,,2013-02-08 19:32:00,
2013-02-08 11:41:00,30.0,30.0,-100.00,WSW,244,19.0,29.0,100,-99.99,,,-99.99,,2013-02-08 19:41:00,
2013-02-08 11:52:00,30.0,30.0,-100.00,WSW,244,19.0,29.0,100,-99.99,,,-99.99,,2013-02-08 19:52:00,
2013-02-08 12:11:00,30.0,30.0,-100.00,WSW,253,20.0,29.0,100,-99.99,,,-99.99,,2013-02-08 20:11:00,
2013-02-08 12:21:00,30.0,30.0,-100.00,WSW,250,17.0,32.0,100,-99.99,,,-99.99,,2013-02-08 20:21:00,
2013-02-08 12:31:00,30.0,30.0,-100.00,WSW,251,17.0,25.0,100,-99.99,,,-99.99,,2013-02-08 20:31:00,
2013-02-08 12:41:00,30.0,30.0,-100.00,WSW,243,15.0,23.0,100,-99.99,,,-99.99,,2013-02-08 20:41:00,
2013-02-08 12:52:00,30.0,30.0,-100.00,WSW,246,13.0,23.0,100,-99.99,,,-99.99,,2013-02-08 20:52:00,
2013-02-08 13:01:00,30.0,30.0,-100.00,SW,236,12.0,21.0,100,-99.99,,,-99.99,,2013-02-08 21:01:00,
2013-02-08 13:11:00,30.0,30.0,-100.00,SW,235,13.0,26.0,100,-99.99,,,-99.99,,2013-02-08 21:11:00,
2013-02-08 13:21:00,31.0,31.0,-100.00,WSW,240,19.0,29.0,100,-99.99,,,-99.99,,2013-02-08 21:21:00,
2013-02-08 13:32:00,31.0,31.0,-100.00,WSW,244,18.0,26.0,100,-99.99,,,-99.99,,2013-02-08 21:32:00,
2013-02-08 13:41:00,31.0,31.0,-100.00,WSW,241,18.0,33.0,100,-99.99,,,-99.99,,2013-02-08 21:41:00,
2013-02-08 13:52:00,31.0,31.0,-100.00,WSW,249,21.0,31.0,100,-99.99,,,-99.99,,2013-02-08 21:52:00,
2013-02-08 14:01:00,31.0,31.0,-100.00,WSW,249,21.0,31.0,100,-99.99,,,-99.99,,2013-02-08 22:01:00,
2013-02-08 14:11:00,31.0,31.0,-100.00,WSW,253,23.0,38.0,100,-99.99,,,-99.99,,2013-02-08 22:11:00,
2013-02-08 14:21:00,30.0,30.0,-100.00,WSW,251,25.0,49.0,100,-99.99,,,-99.99,,2013-02-08 22:21:00,
2013-02-08 14:31:00,29.0,29.0,-100.00,WSW,251,21.0,31.0,100,-99.99,,,-99.99,,2013-02-08 22:31:00,
2013-02-08 14:41:00,29.0,29.0,-100.00,WSW,242,18.0,29.0,100,-99.99,,,-99.99,,2013-02-08 22:41:00,
2013-02-08 14:51:00,29.0,29.0,-100.00,SW,236,20.0,32.0,100,-99.99,,,-99.99,,2013-02-08 22:51:00,
2013-02-08 15:01:00,30.0,30.0,-100.00,WSW,244,19.0,31.0,100,-99.99,,,-99.99,,2013-02-08 23:01:00,
2013-02-08 15:11:00,29.0,29.0,-100.00,WSW,241,17.0,26.0,100,-99.99,,,-99.99,,2013-02-08 23:11:00,
2013-02-08 15:21:00,29.0,29.0,-100.00,SW,234,18.0,30.0,100,-99.99,,,-99.99,,2013-02-08 23:21:00,
2013-02-08 15:31:00,30.0,30.0,-100.00,WSW,237,16.0,25.0,100,-99.99,,,-99.99,,2013-02-08 23:31:00,
2013-02-08 15:41:00,30.0,30.0,-100.00,WSW,241,14.0,22.0,100,-99.99,,,-99.99,,2013-02-08 23:41:00,
2013-02-08 15:52:00,30.0,30.0,-100.00,WSW,240,15.0,30.0,100,-99.99,,,-99.99,,2013-02-08 23:52:00,
2013-02-08 16:01:00,30.0,30.0,-100.00,WSW,239,19.0,28.0,100,-99.99,,,-99.99,,2013-02-09 00:01:00,
2013-02-08 16:11:00,30.0,30.0,-100.00,WSW,250,19.0,33.0,100,-99.99,,,-99.99,,2013-02-09 00:11:00,
2013-02-08 16:21:00,30.0,30.0,-100.00,WSW,246,19.0,30.0,100,-99.99,,,-99.99,,2013-02-09 00:21:00,
2013-02-08 16:31:00,30.0,30.0,-100.00,WSW,252,21.0,33.0,100,-99.99,,,-99.99,,2013-02-09 00:31:00,
2013-02-08 16:41:00,30.0,30.0,-100.00,WSW,252,21.0,33.0,100,-99.99,,,-99.99,,2013-02-09 00:41:00,
2013-02-08 16:52:00,30.0,30.0,-100.00,WSW,241,20.0,33.0,100,-99.99,,,-99.99,,2013-02-09 00:52:00,
2013-02-08 17:01:00,29.0,29.0,-100.00,SW,233,20.0,34.0,100,-99.99,,,-99.99,,2013-02-09 01:01:00,
2013-02-08 17:11:00,29.0,29.0,-100.00,WSW,248,21.0,29.0,100,-99.99,,,-99.99,,2013-02-09 01:11:00,
2013-02-08 17:21:00,29.0,29.0,-100.00,WSW,250,19.0,30.0,100,-99.99,,,-99.99,,2013-02-09 01:21:00,
2013-02-08 17:31:00,29.0,29.0,-100.00,WSW,249,18.0,28.0,100,-99.99,,,-99.99,,2013-02-09 01:31:00,
2013-02-08 17:41:00,29.0,29.0,-100.00,WSW,255,18.0,30.0,100,-99.99,,,-99.99,,2013-02-09 01:41:00,
2013-02-08 17:52:00,29.0,29.0,-100.00,West,262,18.0,26.0,100,-99.99,,,-99.99,,2013-02-09 01:52:00,
2013-02-08 18:01:00,29.0,29.0,-100.00,WSW,242,16.0,26.0,100,-99.99,,,-99.99,,2013-02-09 02:01:00,
2013-02-08 18:11:00,28.0,28.0,-100.00,WSW,248,16.0,24.0,100,-99.99,,,-99.99,,2013-02-09 02:11:00,
2013-02-08 18:21:00,28.0,28.0,-100.00,West,271,15.0,22.0,100,-99.99,,,-99.99,,2013-02-09 02:21:00,
2013-02-08 18:31:00,28.0,28.0,-100.00,West,269,14.0,24.0,100,-99.99,,,-99.99,,2013-02-09 02:31:00,
2013-02-08 18:41:00,28.0,28.0,-100.00,WSW,256,14.0,21.0,100,-99.99,,,-99.99,,2013-02-09 02:41:00,
2013-02-08 18:52:00,28.0,28.0,-100.00,WSW,258,15.0,24.0,99,-99.99,,,-99.99,,2013-02-09 02:52:00,
2013-02-08 19:01:00,28.0,28.0,-100.00,WSW,257,16.0,23.0,99,-99.99,,,-99.99,,2013-02-09 03:01:00,
2013-02-08 19:11:00,28.0,28.0,-100.00,WSW,257,14.0,24.0,99,-99.99,,,-99.99,,2013-02-09 03:11:00,
2013-02-08 19:21:00,28.0,28.0,-100.00,WSW,257,12.0,20.0,99,-99.99,,,-99.99,,2013-02-09 03:21:00,
2013-02-08 19:31:00,29.0,29.0,-100.00,West,274,12.0,19.0,99,-99.99,,,-99.99,,2013-02-09 03:31:00,
2013-02-08 19:41:00,28.0,28.0,-100.00,West,260,13.0,24.0,99,-99.99,,,-99.99,,2013-02-09 03:41:00,
2013-02-08 19:52:00,28.0,28.0,-100.00,WSW,250,18.0,26.0,99,-99.99,,,-99.99,,2013-02-09 03:52:00,
2013-02-08 20:02:00,28.0,28.0,-100.00,WSW,249,17.0,25.0,99,-99.99,,,-99.99,,2013-02-09 04:02:00,
2013-02-08 20:11:00,28.0,28.0,-100.00,WSW,248,13.0,23.0,99,-99.99,,,-99.99,,2013-02-09 04:11:00,
2013-02-08 20:22:00,28.0,28.0,-100.00,WSW,254,14.0,22.0,99,-99.99,,,-99.99,,2013-02-09 04:22:00,
2013-02-08 20:31:00,28.0,28.0,-100.00,WSW,256,16.0,24.0,99,-99.99,,,-99.99,,2013-02-09 04:31:00,
2013-02-08 20:42:00,28.0,28.0,-100.00,WSW,237,13.0,19.0,99,-99.99,,,-99.99,,2013-02-09 04:42:00,
2013-02-08 20:51:00,28.0,28.0,-100.00,WSW,238,12.0,19.0,99,-99.99,,,-99.99,,2013-02-09 04:51:00,
2013-02-08 21:02:00,28.0,28.0,-100.00,WSW,254,15.0,22.0,99,-99.99,,,-99.99,,2013-02-09 05:02:00,
2013-02-08 21:11:00,28.0,28.0,-100.00,WSW,256,17.0,26.0,99,-99.99,,,-99.99,,2013-02-09 05:11:00,
2013-02-08 21:22:00,28.0,28.0,-100.00,WSW,243,15.0,28.0,99,-99.99,,,-99.99,,2013-02-09 05:22:00,
2013-02-08 21:31:00,28.0,28.0,-100.00,WSW,248,17.0,25.0,99,-99.99,,,-99.99,,2013-02-09 05:31:00,
2013-02-08 21:41:00,27.0,27.0,-100.00,West,262,13.0,18.0,99,-99.99,,,-99.99,,2013-02-09 05:41:00,
2013-02-08 21:52:00,27.0,27.0,-100.00,WSW,251,14.0,24.0,99,-99.99,,,-99.99,,2013-02-09 05:52:00,
2013-02-08 22:01:00,28.0,28.0,-100.00,WSW,251,15.0,22.0,99,-99.99,,,-99.99,,2013-02-09 06:01:00,
2013-02-08 22:11:00,27.0,27.0,-100.00,WSW,254,13.0,19.0,99,-99.99,,,-99.99,,2013-02-09 06:11:00,
2013-02-08 22:21:00,27.0,27.0,-100.00,WSW,257,15.0,19.0,99,-99.99,,,-99.99,,2013-02-09 06:21:00,
2013-02-08 22:31:00,27.0,27.0,-100.00,WSW,252,13.0,18.0,99,-99.99,,,-99.99,,2013-02-09 06:31:00,
2013-02-08 22:41:00,27.0,27.0,-100.00,WSW,254,11.0,18.0,99,-99.99,,,-99.99,,2013-02-09 06:41:00,
2013-02-08 22:51:00,27.0,27.0,-100.00,WSW,250,12.0,18.0,99,-99.99,,,-99.99,,2013-02-09 06:51:00,
2013-02-08 23:01:00,27.0,27.0,-100.00,WSW,255,13.0,17.0,99,-99.99,,,-99.99,,2013-02-09 07:01:00,
2013-02-08 23:11:00,27.0,27.0,-100.00,WSW,256,12.0,19.0,99,-99.99,,,-99.99,,2013-02-09 07:11:00,
2013-02-08 23:21:00,27.0,27.0,-100.00,WSW,253,13.0,18.0,99,-99.99,,,-99.99,,2013-02-09 07:21:00,
2013-02-08 23:31:00,27.0,27.0,-100.00,WSW,249,13.0,18.0,99,-99.99,,,-99.99,,2013-02-09 07:31:00,
2013-02-08 23:42:00,27.0,27.0,-100.00,WSW,242,12.0,18.0,99,-99.99,,,-99.99,,2013-02-09 07:42:00,
2013-02-08 23:51:00,27.0,27.0,-100.00,WSW,246,12.0,17.0,99,-99.99,,,-99.99,,2013-02-09 07:51:00,